Louisville Bowman, KY

10:41 PM EDT on October 18, 2019 (GMT -0400)
Bowman

Weather History for KLOU - July, 2019

Change the Weather History Date:

Wednesday, July 24, 2019

  Actual Average Record
Temperature  
Mean Temperature 72 °F 78 °F  
Max Temperature 82 °F 87 °F 97 °F (1965)
Min Temperature 62 °F 68 °F 59 °F (2000)
Degree Days  
Heating Degree Days 0 0  
Month to date heating degree days 0  
Since 1 June heating degree days 3  
Since 1 July heating degree days 0  
Cooling Degree Days 7 13  
Month to date cooling degree days 312  
Year to date cooling degree days 764  
Since 1 June cooling degree days 617  
Growing Degree Days 22 (Base 50)    
Moisture  
Dew Point 56 °F    
Average Humidity 59    
Maximum Humidity 84    
Minimum Humidity 35    
Precipitation  
Precipitation 0.00 in 0.16 in 1.86 in (2011)
Month to date precipitation 3.25  
Year to date precipitation 27.31  
Sea Level Pressure  
Sea Level Pressure 30.09 in    
Wind  
Wind Speed 4 mph (North)    
Max Wind Speed 10 mph    
Max Gust Speed 18 mph    
Visibility 10 miles    
Events      
T = Trace of Precipitation, MM = Missing Value Source: NWS Daily Summary

Daily Weather History Graph

Daily Weather History Graph

Search for Another Location

Airport or City:

Astronomy

Jul. 24, 2019 Rise Set
Actual Time 6:38 AM EDT 8:59 PM EDT
Civil Twilight 6:08 AM EDT 9:29 PM EDT
Nautical Twilight 5:31 AM EDT 10:06 PM EDT
Astronomical Twilight 4:50 AM EDT 10:47 PM EDT
Moon 12:52 AM EDT (7/24) 1:42 PM EDT (7/24)
Length of Visible Light 15h 21m
Length of Day
14h 21m
Waning Gibbous, 54% of the Moon is Illuminated
Jul 24
Waning Gibbous
Jul 24
Last Quarter
Jul 31
New
Aug 7
First Quarter
Aug 15
Full

Hourly Weather History & Observations

Time (EDT) Temp. Heat Index Dew Point Humidity Pressure Visibility Wind Dir Wind Speed Gust Speed Precip Events Conditions
12:53 AM 66.0 °F - 57.9 °F 75% 30.05 in 10.0 mi Calm Calm - N/A   Clear
1:53 AM 64.0 °F - 57.9 °F 80% 30.05 in 10.0 mi Calm Calm - N/A   Clear
2:53 AM 62.1 °F - 57.0 °F 84% 30.05 in 10.0 mi Calm Calm - N/A   Clear
3:53 AM 64.0 °F - 57.9 °F 80% 30.05 in 10.0 mi Calm Calm - N/A   Clear
4:53 AM 64.9 °F - 57.0 °F 75% 30.05 in 10.0 mi North 3.5 mph - N/A   Clear
5:53 AM 64.0 °F - 57.9 °F 80% 30.06 in 10.0 mi NNW 3.5 mph - N/A   Clear
6:53 AM 64.9 °F - 55.9 °F 73% 30.08 in 10.0 mi NNW 4.6 mph - N/A   Clear
7:53 AM 64.9 °F - 55.0 °F 70% 30.09 in 10.0 mi Variable 5.8 mph - N/A   Clear
8:53 AM 66.9 °F - 55.0 °F 66% 30.12 in 10.0 mi Variable 5.8 mph - N/A   Clear
9:53 AM 69.1 °F - 55.9 °F 63% 30.13 in 10.0 mi North 4.6 mph - N/A   Clear
10:53 AM 72.0 °F - 55.0 °F 55% 30.14 in 10.0 mi NNW 10.4 mph - N/A   Clear
11:53 AM 75.0 °F - 57.0 °F 53% 30.12 in 10.0 mi North 8.1 mph - N/A   Clear
12:53 PM 78.1 °F - 57.9 °F 50% 30.12 in 10.0 mi North 9.2 mph - N/A   Clear
1:53 PM 80.1 °F 80.6 °F 57.9 °F 47% 30.11 in 10.0 mi NNE 10.4 mph - N/A   Partly Cloudy
2:53 PM 81.0 °F 81.0 °F 57.0 °F 44% 30.09 in 10.0 mi NNW 8.1 mph 18.4 mph N/A   Partly Cloudy
3:53 PM 81.0 °F 80.4 °F 53.1 °F 38% 30.08 in 10.0 mi North 6.9 mph - N/A   Partly Cloudy
4:53 PM 81.0 °F - 52.0 °F 36% 30.07 in 10.0 mi NNW 9.2 mph - N/A   Clear
5:53 PM 82.0 °F - 52.0 °F 35% 30.07 in 10.0 mi North - - N/A   Clear
6:53 PM 81.0 °F - 52.0 °F 36% 30.07 in 10.0 mi North 8.1 mph - N/A   Clear
7:53 PM 79.0 °F - 53.1 °F 40% 30.09 in 10.0 mi North 8.1 mph - N/A   Clear
8:53 PM 75.9 °F - 53.1 °F 45% 30.10 in 10.0 mi North 4.6 mph - N/A   Clear
9:53 PM 73.0 °F - 54.0 °F 51% 30.11 in 10.0 mi North 4.6 mph - N/A   Clear
10:53 PM 69.1 °F - 57.0 °F 65% 30.12 in 10.0 mi North 3.5 mph - N/A   Clear
11:53 PM 64.0 °F - 55.9 °F 75% 30.12 in 10.0 mi Calm Calm - N/A   Clear